Regional Weather Roundup
Issued by NWS

Home | Current Version | Previous Version | Text Only | Print | Product List | Glossary Off
Versions: 1 2 3 4 5 6 7 8 9 10 11 12 13 14 15 16 17 18 19 20 21 22 23 24 25 26 27 28 29 30 31 32 33 34 35 36 37 38 39 40 41 42 43 44 45 46 47 48 49 50

000
ASUS43 KMKX 211120
RWRWI

WISCONSIN REGIONAL WEATHER ROUNDUP
NATIONAL WEATHER SERVICE MILWAUKEE/SULLIVAN WI
500 AM CST SAT JAN 21 2017

NOTE: "FAIR" INDICATES FEW OR NO CLOUDS BELOW 12,000 FEET WITH NO
SIGNIFICANT WEATHER AND/OR OBSTRUCTIONS TO VISIBILITY.

WIZ001-002-006>008-014>016-023>028-211200-
NORTHWEST WISCONSIN

CITY           SKY/WX    TMP DP  RH WIND       PRES   REMARKS
SUPERIOR ARPT  CLOUDY    34  34 100 CALM      29.53F FOG
ASHLAND        CLOUDY    35  34  96 CALM      29.56S
HAYWARD        CLOUDY    35  33  92 CALM      29.52S FOG
SIREN          MIX PCPN  34  34  99 E3        29.51F
CUMBERLAND     FOG       32  32 100 E6        29.49F VSB 1/2 WCI  26
RICE LAKE      FOG       34  34 100 E6        29.52F VSB 1/2 WCI  29
CHETEK         CLOUDY    33  33 100 E3        29.50F FOG
LADYSMITH      CLOUDY    35  34  98 E6        29.53F FOG     WCI  30
EAU CLAIRE     CLOUDY    34  34 100 E8        29.49F FOG     WCI  27
MENOMONIE        N/A    N/A N/A N/A MISG        N/A
NEW RICHMOND   FOG       34  34 100 E9        29.47F VSB 1   WCI  26
OSCEOLA        CLOUDY    35  35 100 E5        29.50F FOG     WCI  31
$$

WIZ003>005-009-010-017-018-211200-
NORTH CENTRAL WISCONSIN

CITY           SKY/WX    TMP DP  RH WIND       PRES   REMARKS
MANITOWISH WTR CLOUDY    32  32 100 SE6       29.53S FOG     WCI  26
ARBOR VITAE    CLOUDY    34  33  96 SE8       29.54R FOG     WCI  27
WOODRUFF       CLOUDY    34  33  96 SE8       29.54R FOG     WCI  27
RHINELANDER    CLOUDY    33  33 100 E9        29.54F FOG     WCI  25
EAGLE RIVER    CLOUDY    32  32 100 SE3       29.55R
LAND O LAKES   CLOUDY    33  33 100 SE6       29.56S WCI  28
PHILLIPS       CLOUDY    32  32 100 E5        29.52S FOG     WCI  28
TOMAHAWK       CLOUDY    32  32  99 CALM      29.54F FOG
MEDFORD        FOG       32  32 100 E7        29.51F VSB 1/2 WCI  26
MERRILL        CLOUDY    33  33 100 SE6         N/A  FOG     WCI  28
$$

WIZ029-030-035-036-043>047-211200-
CENTRAL WISCONSIN

CITY           SKY/WX    TMP DP  RH WIND       PRES   REMARKS
WAUSAU         FOG       33  33 100 E9        29.52F VSB 3/4 WCI  25
MOSINEE        FOG       32  32 100 E12       29.52F VSB 1/2 WCI  23
MARSHFIELD     FOG       33  32  96 E10       29.50F VSB 1/2 WCI  25
STEVENS POINT  FOG       32  32 100 E7        29.55S VSB 3/4 WCI  25
WAUPACA        FOG       36  35  96 CALM      29.56F VSB 1/4
WAUTOMA        MIX PCPN  34  34 100 NE10      29.52F FOG     WCI  26
WISC RAPIDS    FOG       34  34 100 E8        29.54S VSB 1/2 WCI  27
CAMP DOUGLAS   FOG       34  34 100 E7        29.48F VSB 1   WCI  28
$$

WIZ011>013-019>022-031-037>040-048>050-211200-
NORTHEAST WISCONSIN

CITY           SKY/WX    TMP DP  RH WIND       PRES   REMARKS
ANTIGO         CLOUDY    32  32 100 SE7       29.56S FOG     WCI  25
SHAWANO        FOG       34  33  95 E3        29.59S VSB 1/2
OCONTO         CLOUDY    33  33  99 CALM      29.60S VSB 1
STURGEON BAY   CLOUDY    35  35 100 SE8       29.61F FOG     WCI  29
GREEN BAY      FOG       37  37 100 E6        29.59F VSB 1/2 WCI  32
MANITOWOC      LGT RAIN  36  35  96 E7        29.60S VSB 3/4 WCI  30
APPLETON       NOT AVBL
CLINTONVILLE   FOG       34  34 100 E6        29.57F VSB 1/4 WCI  29
OSHKOSH        FOG       35  34  96 E7        29.54F VSB 1/2 WCI  29
$$

WIZ032>034-041-042-053>061-211200-
SOUTHWEST WISCONSIN

CITY           SKY/WX    TMP DP  RH WIND       PRES   REMARKS
LA CROSSE      CLOUDY    39  36  89 VRB3      29.46F FOG
SPARTA         CLOUDY    34  34 100 E9        29.48F FOG     WCI  26
VIROQUA        CLOUDY    35  35 100 E8        29.44F VSB 1/4 WCI  29
BOSCOBEL       LGT RAIN  37  36  96 NE5       29.46F VSB 3/4 WCI  33
PRAIRIE DU CHI DRIZZLE   37  36  96 CALM      29.43F
PLATTEVILLE    CLOUDY    37  37 100 E9        29.45F VSB 1/2 WCI  31
$$

WIZ056-057-062-063-064-067-068-211200-
SOUTH CENTRAL WISCONSIN

CITY           SKY/WX    TMP DP  RH WIND       PRES   REMARKS
REEDSBURG      FOG       34  34 100 NE7       29.49F VSB 1/2 WCI  28
BARABOO/DELLS  FOG       35  34  99 E7        29.50S VSB<1/4 WCI  29
LONE ROCK      CLOUDY    37  36  96 E10       29.47F FOG     WCI  30
MINERAL POINT  SNOW      39  39 100 E7        29.45F VSB 1/4 WCI  34
MADISON        FOG       37  37 100 SE7       29.50F VSB 3/4 WCI  32
MIDDLETON      CLOUDY    38  38 100 E3        29.49F VSB 1/4
WATERTOWN      CLOUDY    37  37 100 E9        29.51F FOG     WCI  31
MONROE         FOG       37  37 100 E6        29.47F VSB 1/4 WCI  33
JANESVILLE     FOG       39  39 100 E7        29.50F VSB 1   WCI  34
$$

WIZ051-052-058>065-066-070>072-211200-
SOUTHEAST WISCONSIN

CITY           SKY/WX    TMP DP  RH WIND       PRES   REMARKS
MILWAUKEE      FOG       39  38  96 W6        29.55F VSB 1/8 WCI  35
WAUKESHA       RAIN      34  34 100 NE5       29.55F VSB 1/4 WCI  30
MILWAUKEE/TIMM LGT RAIN  36  34  93 N3        29.56F VSB 1/2
RACINE         FOG       41  39  93 SE5       29.56F VSB 1/4
KENOSHA        FOG       41  40  96 SE3       29.54F VSB 1/2
FOND DU LAC    CLOUDY    37  34  89 SE3       29.55S
SHEBOYGAN      FOG       36  34  92 NE7       29.56F VSB 1/2 WCI  30
WEST BEND      LGT RAIN  36  36 100 CALM      29.56S VSB 1/4
JUNEAU         LGT RAIN  37  36  99 E8        29.54F VSB 1/4 WCI  30
$$

LSZ147-162-211200-
LAKE SUPERIOR

STATION/POSITION TIME  TEMP    WIND        PRES    WAVE
                       AIR SEA DIR/SP/G            HT/PER
                 (UTC) (F)     (DEG/KT/KT) (MB)    (FT/S)
DEVILS ISLAND    1100   35     120/  7/  7 1001.3F
PORT WING        1040   34      CALM  /  1 1000.3F
SAXON HARBOR     1040   33      CALM  /  1 1000.7F
$$

LMZ867-665-643>646-211200-
LAKE MICHIGAN

STATION/POSITION TIME  TEMP    WIND        PRES    WAVE
                       AIR SEA DIR/SP/G            HT/PER
                 (UTC) (F)     (DEG/KT/KT) (MB)    (FT/S)
NORTHPORT PIER   1030   33      CALM  /  1 1003.0F
SISTER BAY       0935   35        CALM       N/A
KEWAUNEE LAKESHO 1054   36     100/  3/  5 1001.9F
SHEBOYGAN LAKESH 1100   36      20/  4/  5 1001.7F
PORT WASHINGTON  1040   38      40/  5/  7 1002.4F
KENOSHA   LAKESH 1100   38     160/  4/  4 1001.0
$$

TC  - TEMPERATURE IN CELSIUS
VSB - VISIBILITY IN STATUTE MILES
WCI - WIND CHILL INDEX
HX  - HEAT INDEX





USA.gov is the U.S. government's official web portal to all federal, state and local government web resources and services.